Regional Weather Roundup
Issued by NWS

Home | Current Version | Previous Version | Graphics & Text | Print | Product List | Glossary Off
Versions: 1 2 3 4 5 6 7 8 9 10 11 12 13 14 15 16 17 18 19 20 21 22 23 24 25 26 27 28 29 30 31 32 33 34 35 36 37 38 39 40 41 42 43 44 45 46 47 48 49 50

000
ASUS45 KCYS 291810
RWRWY

WYOMING REGIONAL WEATHER ROUNDUP
NATIONAL WEATHER SERVICE CHEYENNE WY
1200 PM MDT MON MAY 29 2017

NOTE:  "FAIR" INDICATES FEW OR NO CLOUDS BELOW 12,000 FEET
WITH NO SIGNIFICANT WEATHER AND/OR OBSTRUCTIONS TO VISIBILITY.

WYZ001-291900-
YELLOWSTONE NATIONAL PARK

CITY           SKY/WX    TMP DP  RH WIND       PRES   REMARKS
LK YELLOWSTONE   N/A     50  35  56 VRB3      30.37F
6HR MIN TEMP:  28; 6HR MAX TEMP:  50;

W YELLOWSTONE  NOT AVBL

$$
WYZ002>013-054>058-071-098>099-291900-
NORTHERN WYOMING

CITY           SKY/WX    TMP DP  RH WIND       PRES   REMARKS
JACKSON        MOSUNNY   61  37  41 CALM      30.30F
CODY           NOT AVBL
GREYBULL       FAIR      70  36  28 N7G18     30.21F
6HR MIN TEMP:  44; 6HR MAX TEMP:  70;

WORLAND        FAIR      68  46  45 VRB3      30.22F
6HR MIN TEMP:  43; 6HR MAX TEMP:  68;

SHERIDAN       FAIR      67  43  41 NW15G23   30.23S
6HR MIN TEMP:  47; 6HR MAX TEMP:  67;

BUFFALO        FAIR      63  37  38 N22G33    30.24F
6HR MIN TEMP:  49; 6HR MAX TEMP:  63;

GILLETTE       FAIR      63  35  35 N21G26    30.22S
6HR MIN TEMP:  44; 6HR MAX TEMP:  63;

HULETT         FAIR      59  30  33 W16G22    30.21F
NEWCASTLE      FAIR      61  19  20 NW24G35   30.21S

$$
WYZ014>020-022>026-101>103-291900-
CENTRAL WYOMING

CITY           SKY/WX    TMP DP  RH WIND       PRES   REMARKS
BIG PINEY      FAIR      61  37  41 VRB5      30.32F
6HR MIN TEMP:  33; 6HR MAX TEMP:  61;

PINEDALE       FAIR      59  32  36 W6        30.33F
DUBOIS         FAIR      61  27  27 CALM      30.29F
LANDER         FAIR      62  41  46 VRB6      30.26F
6HR MIN TEMP:  44; 6HR MAX TEMP:  63;

RIVERTON       FAIR      63  41  44 VRB7      30.27F
6HR MIN TEMP:  45; 6HR MAX TEMP:  64;

CASPER         PTSUNNY   62  39  42 N5        30.25F
6HR MIN TEMP:  42; 6HR MAX TEMP:  64;

DOUGLAS        FAIR      65  36  34 N17G24    30.24S
6HR MIN TEMP:  40; 6HR MAX TEMP:  66;


$$
WYZ021-027>030-104>119-291900-
SOUTHERN WYOMING

CITY           SKY/WX    TMP DP  RH WIND       PRES   REMARKS
EVANSTON       FAIR      62  38  40 N9        30.30F
6HR MIN TEMP:  41; 6HR MAX TEMP:  63;

KEMMERER         N/A     61  32  33 E8        30.33F
FORT BRIDGER   FAIR      64  35  33 E7        30.33F
ROCK SPRINGS   FAIR      62  33  33 MISG      30.30F
6HR MIN TEMP:  43; 6HR MAX TEMP:  62;

DIXON            N/A     65  34  31 NW6       30.29F
RAWLINS        FAIR      60  36  40 N7        30.31F
6HR MIN TEMP:  37; 6HR MAX TEMP:  61;

SARATOGA       FAIR      61  32  33 NE9G18    30.32S
LARAMIE        CLOUDY    57  33  40 N10       30.30F
6HR MIN TEMP:  34; 6HR MAX TEMP:  58;

CHEYENNE       CLOUDY    60  35  39 VRB7      30.27F
6HR MIN TEMP:  45; 6HR MAX TEMP:  62;

TORRINGTON     FAIR      68  33  27 N17G25    30.19S
6HR MIN TEMP:  44; 6HR MAX TEMP:  68;

PINE BLUFFS    FAIR      64  36  34 NW15      30.25F

$$



USA.gov is the U.S. government's official web portal to all federal, state and local government web resources and services.